Rochester, NY

8:22 AM EST on December 07, 2016 (GMT -0500)
Greater Rochester International

Weather History for KROC - March, 2012

Change the Weather History Date:

Friday, March 23, 2012

  Actual Average Record
Temperature  
Mean Temperature 59 °F 37 °F  
Max Temperature 64 °F 45 °F 79 °F (1966)
Min Temperature 53 °F 28 °F -1 °F (1875)
Degree Days  
Heating Degree Days 6 28  
Month to date heating degree days 374 741  
Since 1 July heating degree days 4386 5527  
Cooling Degree Days 0 0  
Month to date cooling degree days 5 0  
Year to date cooling degree days 5 0  
Growing Degree Days 9 (Base 50)    
Moisture  
Dew Point 44 °F    
Average Humidity 63    
Maximum Humidity 86    
Minimum Humidity 40    
Precipitation  
Precipitation 0.00 in 0.08 in 1.17 in (1903)
Month to date precipitation 0.78 1.82  
Year to date precipitation 6.23 6.18  
Snow  
Snow 0.00 in 0.40 in 6.30 in (2011)
Month to date snowfall 3.7 13.6  
Since 1 July snowfall 56.1 92.5  
Snow Depth 0.00 in    
Sea Level Pressure  
Sea Level Pressure 30.14 in    
Wind  
Wind Speed 10 mph (ENE)    
Max Wind Speed 18 mph    
Max Gust Speed 23 mph    
Visibility 10 miles    
Events      
T = Trace of Precipitation, MM = Missing Value Source: NWS Daily Summary

Daily Weather History Graph

Daily Weather History Graph

Search for Another Location

Airport or City:

Trip Planner

Search our weather history database for the weather conditions in past years. The results will help you decide how hot, cold, wet, or windy it might be!

Date:

Astronomy

Mar. 23, 2012 Rise Set
Actual Time 7:07 AM EDT 7:27 PM EDT
Civil Twilight 6:39 AM EDT 7:55 PM EDT
Nautical Twilight 6:05 AM EDT 8:29 PM EDT
Astronomical Twilight 5:31 AM EDT 9:03 PM EDT
Moon 7:12 AM EDT (3/23) 8:51 PM EDT (3/23)
Length of Visible Light 13h 16m
Length of Day
12h 19m
New Moon, 1% of the Moon is Illuminated
Mar 23
New Moon
Mar 30
First Quarter
Apr 6
Full
Apr 13
Last Quarter
Apr 21
New

Hourly Weather History & Observations

Time (EDT) Temp. Dew Point Humidity Pressure Visibility Wind Dir Wind Speed Gust Speed Precip Events Conditions
12:54 AM 55.9 °F 51.1 °F 84% 30.14 in 10.0 mi Calm Calm - N/A   Scattered Clouds
1:54 AM 59.0 °F 53.1 °F 81% 30.14 in 9.0 mi ENE 6.9 mph - N/A   Mostly Cloudy
2:54 AM 57.9 °F 53.1 °F 84% 30.15 in 10.0 mi ENE 8.1 mph - N/A   Scattered Clouds
3:54 AM 57.9 °F 51.1 °F 78% 30.14 in 10.0 mi ENE 9.2 mph - N/A   Overcast
4:54 AM 55.9 °F 50.0 °F 80% 30.15 in 10.0 mi ENE 9.2 mph - N/A   Scattered Clouds
5:54 AM 54.0 °F 48.0 °F 80% 30.16 in 10.0 mi NE 8.1 mph - N/A   Partly Cloudy
6:54 AM 54.0 °F 46.9 °F 77% 30.16 in 10.0 mi ENE 6.9 mph - N/A   Mostly Cloudy
7:54 AM 54.0 °F 46.9 °F 77% 30.19 in 10.0 mi ENE 6.9 mph - N/A   Mostly Cloudy
8:54 AM 55.9 °F 46.9 °F 72% 30.19 in 10.0 mi ENE 5.8 mph - N/A   Overcast
9:54 AM 57.0 °F 48.0 °F 72% 30.20 in 10.0 mi ENE 4.6 mph - N/A   Mostly Cloudy
10:54 AM 59.0 °F 48.0 °F 67% 30.20 in 10.0 mi ENE 6.9 mph - N/A   Overcast
11:54 AM 59.0 °F 48.0 °F 67% 30.19 in 10.0 mi ENE 6.9 mph - N/A   Overcast
12:54 PM 61.0 °F 45.0 °F 56% 30.18 in 10.0 mi ENE 12.7 mph - N/A   Overcast
1:54 PM 61.0 °F 46.9 °F 60% 30.17 in 10.0 mi NNE 11.5 mph - N/A   Overcast
2:54 PM 62.1 °F 45.0 °F 53% 30.15 in 10.0 mi ENE 8.1 mph - N/A   Overcast
3:54 PM 64.0 °F 43.0 °F 46% 30.13 in 10.0 mi ENE 11.5 mph - N/A   Overcast
4:54 PM 63.0 °F 41.0 °F 45% 30.10 in 10.0 mi NE 13.8 mph - N/A   Mostly Cloudy
5:54 PM 60.1 °F 39.0 °F 46% 30.10 in 10.0 mi ENE 16.1 mph 21.9 mph N/A   Overcast
6:54 PM 59.0 °F 37.9 °F 46% 30.09 in 10.0 mi ENE 9.2 mph - N/A   Mostly Cloudy
7:54 PM 57.9 °F 35.1 °F 42% 30.09 in 10.0 mi ENE 10.4 mph 18.4 mph N/A   Mostly Cloudy
8:54 PM 57.9 °F 35.1 °F 42% 30.08 in 10.0 mi ENE 11.5 mph 20.7 mph N/A   Scattered Clouds
9:54 PM 57.9 °F 33.1 °F 39% 30.08 in 10.0 mi ENE 10.4 mph - N/A   Mostly Cloudy
10:54 PM 57.9 °F 33.1 °F 39% 30.07 in 10.0 mi ENE 12.7 mph - N/A   Mostly Cloudy
11:54 PM 55.9 °F 33.1 °F 42% 30.07 in 10.0 mi East 11.5 mph 18.4 mph N/A   Mostly Cloudy